When you browse on this site, cookies collect data to enhance your experience and personalize the content and advertising you see.
Visit our Privacy Policy to learn more. By continuing to use the site, you agree to this use of cookies and data.
  • în România
  • Lista ţărilor
  • Pe 7 zile
  • Temperatura apei
  • Hartă satelitară
  • Meteo pe hartă
  • Widget-uri
  • user-avatar
    Intrare

    Meteo pe oră la Aron

    Astăzi, 16 Februarie, Sâmbătă

    Timp Temperatura Precipitaţii Vânt Presiune Umiditate
    00:00 +5°C° 0 mm 2 m/s 678 mmHg 45%
    01:00 +5°C° 0 mm 2 m/s 678 mmHg 44%
    02:00 +5°C° 0 mm 2 m/s 678 mmHg 42%
    03:00 +4°C° 0 mm 2 m/s 678 mmHg 41%
    04:00 +4°C° 0 mm 2 m/s 678 mmHg 40%
    05:00 +4°C° 0 mm 2 m/s 678 mmHg 39%
    06:00 +4°C° 0 mm 2 m/s 678 mmHg 38%
    07:00 +5°C° 0 mm 2 m/s 678 mmHg 38%
    08:00 +7°C° 0 mm 2 m/s 679 mmHg 38%
    09:00 +8°C° 0 mm 2 m/s 679 mmHg 38%
    10:00 +10°C° 0 mm 2 m/s 680 mmHg 35%
    11:00 +13°C° 0 mm 2 m/s 680 mmHg 33%
    12:00 +15°C° 0 mm 1 m/s 680 mmHg 30%
    13:00 +15°C° 0 mm 1 m/s 680 mmHg 31%
    14:00 +15°C° 0 mm 2 m/s 679 mmHg 33%
    15:00 +15°C° 0 mm 2 m/s 679 mmHg 34%
    16:00 +12°C° 0 mm 2 m/s 678 mmHg 37%
    17:00 +9°C° 0 mm 3 m/s 677 mmHg 41%
    18:00 +7°C° 0 mm 3 m/s 677 mmHg 45%
    19:00 +5°C° 0 mm 3 m/s 677 mmHg 43%
    20:00 +5°C° 0 mm 3 m/s 677 mmHg 41%
    21:00 +4°C° 0 mm 3 m/s 677 mmHg 39%
    22:00 +4°C° 0 mm 3 m/s 677 mmHg 39%
    23:00 +4°C° 0 mm 3 m/s 677 mmHg 38%

    Mâine, 17 Februarie, Duminică

    Timp Temperatura Precipitaţii Vânt Presiune Umiditate
    00:00 +4°C° 0 mm 3 m/s 677 mmHg 38%
    01:00 +4°C° 0 mm 3 m/s 676 mmHg 37%
    02:00 +4°C° 0 mm 3 m/s 676 mmHg 36%
    03:00 +4°C° 0 mm 3 m/s 676 mmHg 35%
    04:00 +3°C° 0 mm 3 m/s 675 mmHg 35%
    05:00 +3°C° 0 mm 3 m/s 675 mmHg 35%
    06:00 +3°C° 0 mm 3 m/s 675 mmHg 35%
    07:00 +4°C° 0 mm 3 m/s 676 mmHg 35%
    08:00 +7°C° 0 mm 3 m/s 676 mmHg 35%
    09:00 +8°C° 0 mm 3 m/s 676 mmHg 35%
    10:00 +10°C° 0 mm 2 m/s 677 mmHg 32%
    11:00 +13°C° 0 mm 2 m/s 677 mmHg 29%
    12:00 +15°C° 0 mm 2 m/s 677 mmHg 27%
    13:00 +15°C° 0 mm 2 m/s 676 mmHg 28%
    14:00 +15°C° 0 mm 2 m/s 676 mmHg 29%
    15:00 +14°C° 0 mm 1 m/s 675 mmHg 30%
    16:00 +12°C° 0 mm 2 m/s 675 mmHg 35%
    17:00 +9°C° 0 mm 2 m/s 674 mmHg 41%
    18:00 +5°C° 0 mm 3 m/s 674 mmHg 46%
    19:00 +5°C° 0 mm 3 m/s 674 mmHg 45%
    20:00 +4°C° 0 mm 3 m/s 674 mmHg 45%
    21:00 +3°C° 0 mm 3 m/s 674 mmHg 45%
    22:00 +3°C° 0 mm 3 m/s 674 mmHg 47%
    23:00 +3°C° 0 mm 3 m/s 673 mmHg 50%

    Poimâine, 18 Februarie, Luni

    Timp Temperatura Precipitaţii Vânt Presiune Umiditate
    00:00 +3°C° 0 mm 3 m/s 673 mmHg 52%
    01:00 +3°C° 0 mm 3 m/s 673 mmHg 51%
    02:00 +3°C° 0 mm 3 m/s 673 mmHg 50%
    03:00 +3°C° 0 mm 3 m/s 672 mmHg 50%
    04:00 +3°C° 0 mm 3 m/s 672 mmHg 48%
    05:00 +2°C° 0 mm 3 m/s 672 mmHg 46%
    06:00 +2°C° 0 mm 3 m/s 672 mmHg 44%
    07:00 +5°C° 0 mm 2 m/s 672 mmHg 42%
    08:00 +6°C° 0 mm 2 m/s 673 mmHg 39%
    09:00 +8°C° 0 mm 2 m/s 673 mmHg 37%
    10:00 +10°C° 0 mm 2 m/s 674 mmHg 33%
    11:00 +12°C° 0 mm 2 m/s 674 mmHg 30%
    12:00 +14°C° 0 mm 2 m/s 674 mmHg 27%
    13:00 +14°C° 0 mm 2 m/s 674 mmHg 28%
    14:00 +14°C° 0 mm 2 m/s 673 mmHg 30%
    15:00 +14°C° 0 mm 2 m/s 673 mmHg 32%
    16:00 +10°C° 0 mm 2 m/s 673 mmHg 42%
    17:00 +9°C° 0 mm 1 m/s 672 mmHg 52%
    18:00 +6°C° 0 mm 1 m/s 672 mmHg 63%
    19:00 +5°C° 0 mm 2 m/s 672 mmHg 61%
    20:00 +4°C° 0 mm 2 m/s 673 mmHg 60%
    21:00 +4°C° 0 mm 2 m/s 673 mmHg 58%
    22:00 +4°C° 0 mm 2 m/s 673 mmHg 59%
    23:00 +3°C° 0 mm 2 m/s 673 mmHg 59%

    19 Februarie, Marţi

    Timp Temperatura Precipitaţii Vânt Presiune Umiditate
    00:00 +4°C° 0 mm 1 m/s 673 mmHg 60%
    01:00 +4°C° 0 mm 1 m/s 673 mmHg 61%
    02:00 +3°C° 0 mm 1 m/s 673 mmHg 61%
    03:00 +3°C° 0 mm 1 m/s 673 mmHg 62%
    04:00 +3°C° 0 mm 1 m/s 673 mmHg 61%
    05:00 +3°C° 0 mm 1 m/s 673 mmHg 61%
    06:00 +2°C° 0 mm 0 m/s 673 mmHg 60%
    07:00 +3°C° 0 mm 0 m/s 674 mmHg 57%
    08:00 +4°C° 0 mm 0 m/s 674 mmHg 55%
    09:00 +6°C° 0 mm 0 m/s 675 mmHg 52%
    10:00 +7°C° 0 mm 0 m/s 675 mmHg 50%
    11:00 +9°C° 0 mm 1 m/s 675 mmHg 48%
    12:00 +11°C° 0 mm 1 m/s 676 mmHg 45%
    13:00 +10°C° 0 mm 1 m/s 675 mmHg 48%
    14:00 +10°C° 0 mm 1 m/s 675 mmHg 51%
    15:00 +10°C° 0 mm 1 m/s 674 mmHg 53%
    16:00 +8°C° 0 mm 1 m/s 674 mmHg 64%
    17:00 +7°C° 0 mm 1 m/s 674 mmHg 75%
    18:00 +5°C° 0 mm 1 m/s 673 mmHg 85%
    19:00 +5°C° 0 mm 1 m/s 674 mmHg 81%
    20:00 +5°C° 0 mm 1 m/s 674 mmHg 77%
    21:00 +3°C° 0 mm 2 m/s 674 mmHg 72%
    22:00 +3°C° 0 mm 2 m/s 674 mmHg 70%
    23:00 +3°C° 0 mm 2 m/s 674 mmHg 67%

    20 Februarie, Miercuri

    Timp Temperatura Precipitaţii Vânt Presiune Umiditate
    00:00 +3°C° 0 mm 2 m/s 674 mmHg 65%
    01:00 +3°C° 0 mm 2 m/s 674 mmHg 64%
    02:00 +3°C° 0 mm 2 m/s 674 mmHg 63%
    03:00 +3°C° 0 mm 2 m/s 674 mmHg 62%
    04:00 +3°C° 0 mm 2 m/s 674 mmHg 62%
    05:00 +3°C° 0 mm 2 m/s 674 mmHg 62%
    06:00 +3°C° 0 mm 2 m/s 674 mmHg 62%
    07:00 +5°C° 0 mm 1 m/s 675 mmHg 59%
    08:00 +7°C° 0 mm 1 m/s 675 mmHg 56%
    09:00 +8°C° 0 mm 1 m/s 676 mmHg 52%
    10:00 +10°C° 0 mm 1 m/s 676 mmHg 49%
    11:00 +11°C° 0 mm 1 m/s 677 mmHg 45%
    12:00 +13°C° 0 mm 1 m/s 677 mmHg 42%
    13:00 +13°C° 0 mm 1 m/s 677 mmHg 44%
    14:00 +12°C° 0 mm 1 m/s 676 mmHg 47%
    15:00 +12°C° 0 mm 1 m/s 676 mmHg 50%
    16:00 +10°C° 0 mm 1 m/s 676 mmHg 60%
    17:00 +8°C° 0 mm 1 m/s 676 mmHg 69%
    18:00 +6°C° 0 mm 1 m/s 676 mmHg 79%
    19:00 +6°C° 0 mm 1 m/s 676 mmHg 78%
    20:00 +6°C° 0 mm 1 m/s 676 mmHg 77%
    21:00 +4°C° 0 mm 2 m/s 676 mmHg 76%
    22:00 +4°C° 0 mm 2 m/s 676 mmHg 75%
    23:00 +4°C° 0 mm 2 m/s 676 mmHg 74%

    21 Februarie, Joi

    Timp Temperatura Precipitaţii Vânt Presiune Umiditate
    00:00 +4°C° 0 mm 2 m/s 676 mmHg 73%
    01:00 +4°C° 0 mm 2 m/s 676 mmHg 73%
    02:00 +4°C° 0 mm 2 m/s 676 mmHg 73%
    03:00 +3°C° 0 mm 2 m/s 676 mmHg 73%
    04:00 +3°C° 0 mm 2 m/s 676 mmHg 74%
    05:00 +3°C° 0 mm 2 m/s 676 mmHg 74%
    06:00 +3°C° 0 mm 2 m/s 676 mmHg 74%
    07:00 +6°C° 0 mm 1 m/s 677 mmHg 68%
    08:00 +8°C° 0 mm 1 m/s 677 mmHg 63%
    09:00 +9°C° 0 mm 1 m/s 678 mmHg 58%
    10:00 +11°C° 0 mm 1 m/s 678 mmHg 54%
    11:00 +12°C° 0 mm 1 m/s 678 mmHg 50%
    12:00 +14°C° 0 mm 1 m/s 678 mmHg 46%
    13:00 +14°C° 0 mm 1 m/s 678 mmHg 48%
    14:00 +14°C° 0 mm 1 m/s 678 mmHg 50%
    15:00 +14°C° 0 mm 1 m/s 677 mmHg 52%
    16:00 +12°C° 0 mm 1 m/s 677 mmHg 60%
    17:00 +9°C° 0 mm 1 m/s 677 mmHg 69%
    18:00 +7°C° 0 mm 1 m/s 676 mmHg 78%
    19:00 +6°C° 0 mm 2 m/s 677 mmHg 75%
    20:00 +6°C° 0 mm 2 m/s 677 mmHg 72%
    21:00 +6°C° 0 mm 2 m/s 677 mmHg 69%
    22:00 +5°C° 0 mm 2 m/s 677 mmHg 66%
    23:00 +5°C° 0 mm 2 m/s 677 mmHg 63%
    Arată mai mult